QFA161 YSSY-NZWN

Flight info

Callsign QFA161
Flight time N/A
Altitude 39000
Route CAWLY M636 TANEN DCT SIMZI
Aircraft B789/H-SDE1E2E3FGHIJ2J3J4J5M1RWXY/LB1D1

Departure

Time 2026-04-21 02:29
Airport Sydney Kingsford Smith International Airport (YSSY)

Arrival

Time N/A
Airport Wellington International Airport (NZWN)
Time Latitude Longitude Altitude Speed Heading
2026-04-21 01:50 -33.93731 151.16938 35 ft 0 kts 254°
2026-04-21 01:50 -33.93732 151.16934 35 ft 0 kts 254°
2026-04-21 02:17 -33.93730 151.16943 35 ft 4 kts 254°
2026-04-21 02:18 -33.93722 151.16974 34 ft 4 kts 248°
2026-04-21 02:18 -33.93710 151.17003 32 ft 3 kts 239°
2026-04-21 02:18 -33.93699 151.17029 33 ft 4 kts 258°
2026-04-21 02:18 -33.93701 151.17054 32 ft 4 kts 327°
2026-04-21 02:19 -33.93725 151.17060 35 ft 4 kts
2026-04-21 02:19 -33.93751 151.17058 34 ft 4 kts
2026-04-21 02:19 -33.93777 151.17060 33 ft 4 kts 347°
2026-04-21 02:19 -33.93804 151.17067 34 ft 4 kts 347°
2026-04-21 02:20 -33.93813 151.17069 34 ft 7 kts 347°
2026-04-21 02:22 -33.93801 151.17066 34 ft 4 kts 347°
2026-04-21 02:22 -33.93748 151.17061 35 ft 10 kts 13°
2026-04-21 02:23 -33.93698 151.17125 35 ft 15 kts 39°
2026-04-21 02:23 -33.93591 151.17125 35 ft 17 kts 347°
2026-04-21 02:23 -33.93470 151.17091 35 ft 19 kts 349°
2026-04-21 02:23 -33.93341 151.17053 35 ft 20 kts 332°
2026-04-21 02:24 -33.93235 151.16959 35 ft 18 kts 343°
2026-04-21 02:24 -33.93121 151.16927 34 ft 19 kts 349°
2026-04-21 02:24 -33.93001 151.16924 35 ft 13 kts 38°
2026-04-21 02:24 -33.92973 151.17014 34 ft 12 kts 78°
2026-04-21 02:25 -33.92969 151.17033 36 ft 0 kts 77°
2026-04-21 02:27 -33.92968 151.17039 36 ft 3 kts 77°
2026-04-21 02:27 -33.92962 151.17098 36 ft 12 kts 92°
2026-04-21 02:27 -33.93019 151.17179 36 ft 13 kts 161°
2026-04-21 02:28 -33.93050 151.17188 36 ft 0 kts 168°
2026-04-21 02:28 -33.93159 151.17215 36 ft 42 kts 168°
2026-04-21 02:28 -33.93649 151.17343 32 ft 101 kts 168°
2026-04-21 02:28 -33.94510 151.17566 43 ft 149 kts 168°
2026-04-21 02:29 -33.95533 151.17828 631 ft 146 kts 164°
2026-04-21 02:29 -33.96535 151.17968 1443 ft 150 kts 180°
2026-04-21 02:29 -33.97615 151.17798 2105 ft 163 kts 185°
2026-04-21 02:29 -33.98811 151.17681 2694 ft 180 kts 181°
2026-04-21 02:30 -34.00120 151.17620 3236 ft 195 kts 178°
2026-04-21 02:30 -34.01545 151.17611 3641 ft 218 kts 181°
2026-04-21 02:30 -34.03132 151.17869 3908 ft 248 kts 150°
2026-04-21 02:30 -34.04284 151.19376 5025 ft 250 kts 125°
2026-04-21 02:31 -34.05018 151.21332 5880 ft 259 kts 115°
2026-04-21 02:31 -34.05654 151.23380 6827 ft 263 kts 114°
2026-04-21 02:31 -34.06365 151.25426 7640 ft 266 kts 118°
2026-04-21 02:31 -34.07155 151.27459 8480 ft 270 kts 118°
2026-04-21 02:32 -34.07953 151.29525 9310 ft 274 kts 118°
2026-04-21 02:32 -34.08478 151.30920 9872 ft 278 kts 117°
2026-04-21 02:32 -34.09557 151.33814 10686 ft 294 kts 117°
2026-04-21 02:32 -34.10135 151.35348 10755 ft 312 kts 117°
2026-04-21 02:33 -34.11074 151.37838 10863 ft 340 kts 117°
2026-04-21 02:33 -34.12085 151.40535 10982 ft 362 kts 117°
2026-04-21 02:33 -34.13118 151.43310 11750 ft 364 kts 117°
2026-04-21 02:33 -34.14166 151.46110 12414 ft 368 kts 117°
2026-04-21 02:34 -34.15226 151.48937 13115 ft 372 kts 117°
2026-04-21 02:34 -34.16297 151.51796 13777 ft 376 kts 117°
2026-04-21 02:34 -34.17378 151.54693 14400 ft 381 kts 117°
2026-04-21 02:34 -34.18471 151.57625 15000 ft 384 kts 117°
2026-04-21 02:35 -34.19570 151.60575 15599 ft 387 kts 117°
2026-04-21 02:35 -34.20681 151.63553 16175 ft 390 kts 117°
2026-04-21 02:35 -34.21799 151.66558 16753 ft 394 kts 117°
2026-04-21 02:35 -34.22926 151.69589 17306 ft 397 kts 117°
2026-04-21 02:36 -34.24060 151.72642 17865 ft 400 kts 117°
2026-04-21 02:36 -34.25204 151.75725 18400 ft 403 kts 117°
2026-04-21 02:36 -34.26355 151.78829 18900 ft 406 kts 117°
2026-04-21 02:36 -34.27513 151.81956 19342 ft 409 kts 117°
2026-04-21 02:37 -34.28677 151.85101 19811 ft 411 kts 117°
2026-04-21 02:37 -34.29846 151.88264 20265 ft 413 kts 117°
2026-04-21 02:37 -34.31018 151.91437 20709 ft 415 kts 117°
2026-04-21 02:37 -34.32200 151.94638 21120 ft 417 kts 117°
2026-04-21 02:38 -34.33577 151.97717 21492 ft 416 kts 125°
2026-04-21 02:38 -34.35062 152.00732 21883 ft 418 kts 123°
2026-04-21 02:38 -34.36518 152.03791 22289 ft 420 kts 123°
2026-04-21 02:38 -34.37995 152.06846 22676 ft 422 kts 124°
2026-04-21 02:39 -34.39497 152.09907 23063 ft 424 kts 124°
2026-04-21 02:39 -34.40999 152.12985 23424 ft 425 kts 124°
2026-04-21 02:39 -34.42495 152.16081 23776 ft 428 kts 124°
2026-04-21 02:39 -34.44003 152.19201 24080 ft 429 kts 124°
2026-04-21 02:40 -34.45518 152.22326 24351 ft 431 kts 124°
2026-04-21 02:40 -34.47039 152.25463 24629 ft 433 kts 124°
2026-04-21 02:40 -34.48562 152.28615 24884 ft 435 kts 124°
2026-04-21 02:40 -34.50091 152.31784 25141 ft 436 kts 124°
2026-04-21 02:41 -34.51626 152.34964 25392 ft 438 kts 124°
2026-04-21 02:41 -34.53165 152.38154 25634 ft 439 kts 124°
2026-04-21 02:41 -34.54711 152.41363 25889 ft 441 kts 124°
2026-04-21 02:41 -34.56260 152.44582 26140 ft 443 kts 124°
2026-04-21 02:42 -34.57813 152.47813 26382 ft 444 kts 124°
2026-04-21 02:42 -34.59373 152.51061 26615 ft 446 kts 124°
2026-04-21 02:42 -34.60936 152.54315 26868 ft 448 kts 124°
2026-04-21 02:42 -34.62505 152.57589 27106 ft 449 kts 124°
2026-04-21 02:43 -34.64079 152.60874 27351 ft 451 kts 124°
2026-04-21 02:43 -34.65636 152.64128 27584 ft 452 kts 124°
2026-04-21 02:43 -34.67219 152.67438 27832 ft 454 kts 124°
2026-04-21 02:43 -34.68806 152.70760 28084 ft 456 kts 124°
2026-04-21 02:44 -34.70398 152.74098 28317 ft 457 kts 124°
2026-04-21 02:44 -34.71995 152.77446 28567 ft 459 kts 124°
2026-04-21 02:44 -34.73598 152.80811 28818 ft 461 kts 124°
2026-04-21 02:44 -34.75205 152.84188 29062 ft 462 kts 124°
2026-04-21 02:45 -34.76815 152.87576 29298 ft 464 kts 124°
2026-04-21 02:45 -34.80062 152.94418 29314 ft 466 kts 124°
2026-04-21 02:46 -34.83292 153.01235 29313 ft 465 kts 124°
2026-04-21 02:46 -34.86522 153.08064 29625 ft 466 kts 124°
2026-04-21 02:46 -34.88136 153.11484 29891 ft 467 kts 124°
2026-04-21 02:47 -34.89759 153.14923 30123 ft 469 kts 124°
2026-04-21 02:47 -34.91386 153.18375 30359 ft 471 kts 124°
2026-04-21 02:47 -34.93018 153.21842 30578 ft 472 kts 124°
2026-04-21 02:47 -34.94651 153.25317 30777 ft 474 kts 124°
2026-04-21 02:48 -34.96292 153.28810 30982 ft 475 kts 124°
2026-04-21 02:48 -34.97937 153.32314 31183 ft 477 kts 124°
2026-04-21 02:48 -34.99585 153.35829 31380 ft 478 kts 124°
2026-04-21 02:48 -35.01237 153.39358 31578 ft 480 kts 124°
2026-04-21 02:49 -35.02893 153.42896 31808 ft 480 kts 124°
2026-04-21 02:49 -35.04544 153.46431 32115 ft 479 kts 124°
2026-04-21 02:49 -35.06192 153.49960 32420 ft 478 kts 124°
2026-04-21 02:49 -35.07837 153.53486 32731 ft 478 kts 124°
2026-04-21 02:50 -35.09479 153.57009 33060 ft 477 kts 125°
2026-04-21 02:50 -35.11116 153.60528 33365 ft 476 kts 125°
2026-04-21 02:50 -35.12751 153.64044 33695 ft 475 kts 125°
2026-04-21 02:50 -35.14381 153.67551 34014 ft 475 kts 125°
2026-04-21 02:51 -35.16006 153.71054 34342 ft 474 kts 125°
2026-04-21 02:51 -35.17630 153.74557 34616 ft 473 kts 125°
2026-04-21 02:51 -35.19253 153.78061 34867 ft 473 kts 125°
2026-04-21 02:51 -35.20869 153.81553 35125 ft 472 kts 125°
2026-04-21 02:52 -35.22485 153.85051 35385 ft 472 kts 125°
2026-04-21 02:52 -35.24099 153.88545 35635 ft 472 kts 125°
2026-04-21 02:52 -35.25711 153.92041 35890 ft 472 kts 125°
2026-04-21 02:52 -35.27322 153.95538 36118 ft 471 kts 125°
2026-04-21 02:53 -35.28931 153.99032 36363 ft 471 kts 125°
2026-04-21 02:53 -35.30516 154.02479 36612 ft 471 kts 125°
2026-04-21 02:53 -35.32140 154.06015 36849 ft 470 kts 125°
2026-04-21 02:53 -35.33742 154.09508 37086 ft 470 kts 125°
2026-04-21 02:54 -35.35344 154.13001 37312 ft 470 kts 125°
2026-04-21 02:54 -35.36941 154.16489 37544 ft 470 kts 125°
2026-04-21 02:54 -35.38537 154.19977 37779 ft 469 kts 125°
2026-04-21 02:54 -35.40130 154.23464 38014 ft 469 kts 125°
2026-04-21 02:55 -35.41724 154.26955 38235 ft 469 kts 125°
2026-04-21 02:55 -35.43294 154.30397 38458 ft 469 kts 125°
2026-04-21 02:55 -35.44883 154.33884 38657 ft 468 kts 125°
2026-04-21 02:55 -35.46469 154.37370 38904 ft 468 kts 125°
2026-04-21 02:56 -35.48055 154.40857 39063 ft 468 kts 124°
2026-04-21 02:56 -35.51230 154.47850 39290 ft 471 kts 124°
2026-04-21 02:56 -35.52828 154.51373 39281 ft 473 kts 124°
2026-04-21 02:57 -35.56009 154.58409 39279 ft 469 kts 124°
2026-04-21 02:57 -35.59176 154.65415 39279 ft 469 kts 124°
2026-04-21 02:58 -35.62208 154.72523 39291 ft 471 kts 122°
2026-04-21 02:58 -35.65153 154.79712 39292 ft 471 kts 122°
2026-04-21 02:59 -35.68068 154.86917 39287 ft 471 kts 122°
2026-04-21 02:59 -35.70994 154.94130 39294 ft 471 kts 122°
2026-04-21 03:00 -35.73910 155.01349 39289 ft 472 kts 122°
2026-04-21 03:00 -35.76828 155.08585 39286 ft 472 kts 122°
2026-04-21 03:01 -35.79741 155.15825 39287 ft 471 kts 122°
2026-04-21 03:01 -35.82645 155.23059 39290 ft 471 kts 122°
2026-04-21 03:02 -35.85548 155.30306 39271 ft 471 kts 122°
2026-04-21 03:02 -35.88442 155.37548 39271 ft 471 kts 122°
2026-04-21 03:03 -35.91333 155.44794 39279 ft 471 kts 122°
2026-04-21 03:03 -35.94217 155.52045 39281 ft 471 kts 122°
2026-04-21 03:04 -35.97097 155.59299 39280 ft 470 kts 122°
2026-04-21 03:04 -35.99951 155.66504 39276 ft 470 kts 122°
2026-04-21 03:05 -36.02839 155.73810 39274 ft 470 kts 122°
2026-04-21 03:05 -36.05704 155.81077 39275 ft 470 kts 122°
2026-04-21 03:06 -36.08546 155.88300 39274 ft 471 kts 122°
2026-04-21 03:06 -36.11405 155.95585 39269 ft 471 kts 122°
2026-04-21 03:07 -36.14260 156.02872 39271 ft 471 kts 122°
2026-04-21 03:07 -36.17111 156.10167 39268 ft 471 kts 122°
2026-04-21 03:08 -36.19957 156.17469 39269 ft 471 kts 122°
2026-04-21 03:08 -36.22797 156.24769 39264 ft 470 kts 122°
2026-04-21 03:09 -36.25629 156.32066 39265 ft 470 kts 122°
2026-04-21 03:09 -36.28456 156.39367 39263 ft 470 kts 122°
2026-04-21 03:10 -36.31282 156.46682 39258 ft 471 kts 121°
2026-04-21 03:10 -36.34105 156.54008 39258 ft 471 kts 121°
2026-04-21 03:11 -36.36922 156.61333 39241 ft 470 kts 121°
2026-04-21 03:11 -36.39735 156.68663 39245 ft 470 kts 121°
2026-04-21 03:12 -36.42521 156.75943 39243 ft 470 kts 121°
2026-04-21 03:12 -36.45322 156.83279 39251 ft 470 kts 121°
2026-04-21 03:13 -36.48120 156.90620 39251 ft 470 kts 121°
2026-04-21 03:13 -36.50911 156.97964 39248 ft 470 kts 121°
2026-04-21 03:14 -36.53700 157.05319 39244 ft 470 kts 121°
2026-04-21 03:14 -36.56484 157.12678 39247 ft 471 kts 121°
2026-04-21 03:15 -36.59270 157.20058 39243 ft 472 kts 121°
2026-04-21 03:15 -36.62057 157.27459 39241 ft 472 kts 121°
2026-04-21 03:16 -36.64842 157.34872 39245 ft 473 kts 121°
2026-04-21 03:16 -36.67623 157.42293 39234 ft 473 kts 121°
2026-04-21 03:17 -36.70400 157.49720 39236 ft 473 kts 121°
2026-04-21 03:17 -36.73174 157.57157 39234 ft 473 kts 120°
2026-04-21 03:18 -36.75937 157.64582 39233 ft 472 kts 120°
2026-04-21 03:18 -36.78693 157.72008 39233 ft 472 kts 120°
2026-04-21 03:19 -36.81430 157.79396 39232 ft 472 kts 120°
2026-04-21 03:19 -36.84181 157.86843 39229 ft 472 kts 120°
2026-04-21 03:20 -36.86927 157.94294 39225 ft 472 kts 120°
2026-04-21 03:20 -36.89668 158.01748 39226 ft 473 kts 120°
2026-04-21 03:21 -36.91944 158.07953 39222 ft 473 kts 120°
2026-04-21 03:21 -36.95140 158.16687 39218 ft 473 kts 120°
2026-04-21 03:22 -36.97409 158.22903 39220 ft 472 kts 120°
2026-04-21 03:22 -37.00130 158.30374 39215 ft 472 kts 120°
2026-04-21 03:23 -37.02845 158.37843 39211 ft 472 kts 120°
2026-04-21 03:23 -37.05558 158.45328 39217 ft 472 kts 120°
2026-04-21 03:24 -37.08268 158.52821 39213 ft 472 kts 119°
2026-04-21 03:24 -37.10970 158.60318 39209 ft 472 kts 119°
2026-04-21 03:25 -37.13667 158.67818 39204 ft 472 kts 119°
2026-04-21 03:25 -37.16363 158.75330 39198 ft 473 kts 119°
2026-04-21 03:26 -37.19054 158.82850 39197 ft 473 kts 119°
2026-04-21 03:26 -37.21747 158.90393 39200 ft 474 kts 119°
2026-04-21 03:27 -37.24432 158.97934 39192 ft 473 kts 119°
2026-04-21 03:27 -37.27112 159.05479 39194 ft 473 kts 119°
2026-04-21 03:28 -37.29783 159.13017 39189 ft 472 kts 119°
2026-04-21 03:28 -37.32446 159.20551 39187 ft 472 kts 118°
2026-04-21 03:29 -37.35105 159.28092 39191 ft 472 kts 118°
2026-04-21 03:29 -37.37761 159.35643 39187 ft 472 kts 118°
2026-04-21 03:30 -37.40410 159.43194 39183 ft 472 kts 118°
2026-04-21 03:30 -37.43054 159.50751 39180 ft 472 kts 118°
2026-04-21 03:31 -37.45692 159.58309 39175 ft 472 kts 118°
2026-04-21 03:31 -37.48310 159.65830 39177 ft 472 kts 118°
2026-04-21 03:32 -37.50945 159.73416 39174 ft 473 kts 118°
2026-04-21 03:32 -37.53573 159.81004 39169 ft 472 kts 118°
2026-04-21 03:33 -37.56193 159.88588 39159 ft 472 kts 118°
2026-04-21 03:33 -37.58807 159.96172 39163 ft 471 kts 118°
2026-04-21 03:34 -37.61412 160.03748 39157 ft 471 kts 118°
2026-04-21 03:34 -37.64015 160.11343 39160 ft 472 kts 118°
2026-04-21 03:35 -37.66615 160.18946 39157 ft 472 kts 118°
2026-04-21 03:35 -37.69206 160.26541 39139 ft 471 kts 118°
2026-04-21 03:36 -37.71789 160.34135 39138 ft 470 kts 117°
2026-04-21 03:36 -37.74366 160.41727 39143 ft 471 kts 117°
2026-04-21 03:37 -37.76942 160.49337 39143 ft 471 kts 117°
2026-04-21 03:37 -37.79515 160.56959 39142 ft 471 kts 117°
2026-04-21 03:38 -37.82078 160.64571 39139 ft 469 kts 117°
2026-04-21 03:38 -37.84627 160.72163 39139 ft 469 kts 117°
2026-04-21 03:39 -37.87173 160.79763 39137 ft 470 kts 117°
2026-04-21 03:39 -37.89699 160.87325 39132 ft 469 kts 117°
2026-04-21 03:40 -37.92235 160.94936 39131 ft 469 kts 117°
2026-04-21 03:40 -37.94765 161.02546 39127 ft 468 kts 117°
2026-04-21 03:41 -37.97287 161.10155 39122 ft 468 kts 117°
2026-04-21 03:41 -37.99804 161.17769 39121 ft 468 kts 117°
2026-04-21 03:42 -38.02318 161.25394 39119 ft 468 kts 117°
2026-04-21 03:42 -38.04828 161.33026 39112 ft 469 kts 117°
2026-04-21 03:43 -38.07339 161.40681 39114 ft 471 kts 117°
2026-04-21 03:43 -38.09849 161.48356 39106 ft 470 kts 117°
2026-04-21 03:44 -38.12350 161.56023 39107 ft 470 kts 116°
2026-04-21 03:44 -38.14844 161.63686 39101 ft 470 kts 116°
2026-04-21 03:45 -38.17337 161.71369 39099 ft 470 kts 116°
2026-04-21 03:45 -38.19821 161.79046 39096 ft 469 kts 116°
2026-04-21 03:46 -38.22298 161.86720 39094 ft 470 kts 116°
2026-04-21 03:46 -38.24773 161.94411 39089 ft 470 kts 116°
2026-04-21 03:47 -38.27230 162.02063 39088 ft 470 kts 116°
2026-04-21 03:47 -38.29710 162.09811 39082 ft 469 kts 116°
2026-04-21 03:48 -38.32167 162.17507 39083 ft 470 kts 116°
2026-04-21 03:48 -38.34605 162.25164 39081 ft 469 kts 116°
2026-04-21 03:49 -38.37047 162.32856 39077 ft 468 kts 115°
2026-04-21 03:49 -38.39480 162.40539 39074 ft 468 kts 115°
2026-04-21 03:50 -38.41910 162.48234 39070 ft 468 kts 115°
2026-04-21 03:50 -38.44330 162.55918 39067 ft 466 kts 115°
2026-04-21 03:51 -38.46748 162.63615 39062 ft 466 kts 115°
2026-04-21 03:51 -38.49156 162.71307 39063 ft 466 kts 115°
2026-04-21 03:52 -38.51555 162.78985 39058 ft 467 kts 115°
2026-04-21 03:52 -38.53955 162.86693 39056 ft 466 kts 115°
2026-04-21 03:53 -38.56344 162.94381 39056 ft 467 kts 115°
2026-04-21 03:53 -38.58730 163.02102 39052 ft 467 kts 114°
2026-04-21 03:54 -38.60990 163.09904 39056 ft 468 kts 114°
2026-04-21 03:54 -38.63287 163.17679 39054 ft 468 kts 114°
2026-04-21 03:55 -38.65566 163.25482 39050 ft 469 kts 114°
2026-04-21 03:55 -38.67847 163.33297 39044 ft 469 kts 114°
2026-04-21 03:56 -38.70122 163.41113 39048 ft 469 kts 114°
2026-04-21 03:56 -38.72392 163.48938 39046 ft 469 kts 114°
2026-04-21 03:57 -38.74647 163.56733 39039 ft 470 kts 114°
2026-04-21 03:57 -38.76930 163.64651 39029 ft 471 kts 114°
2026-04-21 03:58 -38.79177 163.72464 39032 ft 470 kts 114°
2026-04-21 03:58 -38.81450 163.80391 39034 ft 471 kts 114°
2026-04-21 03:59 -38.83686 163.88215 39034 ft 470 kts 113°
2026-04-21 04:00 -38.87047 164.00014 39031 ft 470 kts 113°
2026-04-21 04:00 -38.89282 164.07894 39028 ft 469 kts 113°
2026-04-21 04:01 -38.91509 164.15767 39023 ft 469 kts 113°
2026-04-21 04:01 -38.93729 164.23638 39024 ft 469 kts 113°
2026-04-21 04:02 -38.95947 164.31525 39035 ft 469 kts 113°
2026-04-21 04:02 -38.98161 164.39425 39027 ft 470 kts 113°
2026-04-21 04:03 -39.00371 164.47332 39028 ft 470 kts 113°
2026-04-21 04:03 -39.02577 164.55248 39021 ft 470 kts 112°
2026-04-21 04:04 -39.04775 164.63161 39025 ft 470 kts 112°
2026-04-21 04:04 -39.06970 164.71085 39021 ft 470 kts 112°
2026-04-21 04:05 -39.09160 164.79018 39027 ft 470 kts 112°
2026-04-21 04:05 -39.11344 164.86955 39020 ft 470 kts 112°
2026-04-21 04:06 -39.13523 164.94893 39024 ft 470 kts 112°
2026-04-21 04:06 -39.15329 165.01496 39021 ft 470 kts 112°
2026-04-21 04:07 -39.17843 165.10711 39023 ft 468 kts 112°
2026-04-21 04:07 -39.20001 165.18648 39014 ft 469 kts 112°
2026-04-21 04:08 -39.22153 165.26589 39020 ft 470 kts 112°
2026-04-21 04:08 -39.23956 165.33262 39022 ft 471 kts 112°
2026-04-21 04:09 -39.26105 165.41239 39020 ft 470 kts 111°
2026-04-21 04:09 -39.28247 165.49211 39020 ft 470 kts 111°
2026-04-21 04:10 -39.30386 165.57198 39023 ft 471 kts 111°
2026-04-21 04:10 -39.32524 165.65212 39023 ft 472 kts 111°
2026-04-21 04:11 -39.34661 165.73241 39022 ft 473 kts 111°
2026-04-21 04:11 -39.36794 165.81285 39020 ft 473 kts 111°
2026-04-21 04:12 -39.38923 165.89337 39020 ft 473 kts 111°
2026-04-21 04:12 -39.41032 165.97340 39024 ft 474 kts 111°
2026-04-21 04:13 -39.43152 166.05414 39031 ft 474 kts 111°
2026-04-21 04:13 -39.45268 166.13492 39021 ft 474 kts 110°
2026-04-21 04:14 -39.47380 166.21587 39026 ft 475 kts 110°
2026-04-21 04:14 -39.49489 166.29695 39029 ft 475 kts 110°
2026-04-21 04:15 -39.51590 166.37799 39029 ft 475 kts 110°
2026-04-21 04:15 -39.53688 166.45915 39025 ft 475 kts 110°
2026-04-21 04:16 -39.55777 166.54029 39029 ft 475 kts 110°
2026-04-21 04:16 -39.57863 166.62153 39027 ft 475 kts 110°
2026-04-21 04:17 -39.59940 166.70270 39032 ft 474 kts 110°
2026-04-21 04:17 -39.62011 166.78391 39028 ft 474 kts 110°
2026-04-21 04:18 -39.64074 166.86509 39030 ft 474 kts 110°
2026-04-21 04:18 -39.66118 166.94579 39026 ft 474 kts 110°
2026-04-21 04:19 -39.68181 167.02750 39029 ft 473 kts 110°
2026-04-21 04:19 -39.70212 167.10820 39025 ft 474 kts 110°
2026-04-21 04:20 -39.72252 167.18955 39029 ft 474 kts 110°
2026-04-21 04:20 -39.74290 167.27107 39026 ft 475 kts 109°
2026-04-21 04:21 -39.76322 167.35267 39028 ft 475 kts 109°
2026-04-21 04:21 -39.78350 167.43436 39024 ft 475 kts 109°
2026-04-21 04:22 -39.80370 167.51603 39027 ft 475 kts 109°
2026-04-21 04:22 -39.82388 167.59785 39022 ft 475 kts 109°
2026-04-21 04:23 -39.84400 167.67974 39023 ft 475 kts 109°
2026-04-21 04:23 -39.86404 167.76163 39017 ft 475 kts 109°
2026-04-21 04:24 -39.88391 167.84299 39021 ft 475 kts 109°
2026-04-21 04:24 -39.90386 167.92505 39262 ft 475 kts 109°
2026-04-21 04:24 -39.91382 167.96610 39426 ft 476 kts 109°
2026-04-21 04:25 -39.92377 168.00722 39588 ft 476 kts 109°
2026-04-21 04:25 -39.93372 168.04840 39755 ft 477 kts 109°
2026-04-21 04:25 -39.94366 168.08960 39889 ft 478 kts 109°
2026-04-21 04:25 -39.95361 168.13092 40008 ft 479 kts 109°
2026-04-21 04:26 -39.96360 168.17243 39998 ft 480 kts 109°
2026-04-21 04:26 -39.98344 168.25523 39997 ft 476 kts 109°
2026-04-21 04:27 -40.00314 168.33763 39995 ft 476 kts 109°
2026-04-21 04:27 -40.02277 168.42012 39988 ft 476 kts 109°
2026-04-21 04:28 -40.04234 168.50258 39989 ft 476 kts 109°
2026-04-21 04:28 -40.06187 168.58523 39986 ft 476 kts 109°
2026-04-21 04:29 -40.08133 168.66781 39987 ft 477 kts 109°
2026-04-21 04:29 -40.10076 168.75062 39982 ft 479 kts 108°
2026-04-21 04:30 -40.12036 168.83440 39997 ft 483 kts 108°
2026-04-21 04:30 -40.13990 168.91831 39984 ft 482 kts 108°
2026-04-21 04:31 -40.15936 169.00213 39984 ft 482 kts 108°
2026-04-21 04:31 -40.17876 169.08603 39983 ft 482 kts 108°
2026-04-21 04:32 -40.19811 169.16997 39982 ft 482 kts 108°
2026-04-21 04:32 -40.21742 169.25407 39984 ft 483 kts 108°
2026-04-21 04:33 -40.23669 169.33834 39989 ft 484 kts 108°
2026-04-21 04:33 -40.25590 169.42263 39985 ft 483 kts 108°
2026-04-21 04:34 -40.27499 169.50675 39984 ft 482 kts 108°
2026-04-21 04:34 -40.29407 169.59108 39986 ft 483 kts 108°
2026-04-21 04:35 -40.31305 169.67534 39985 ft 482 kts 107°
2026-04-21 04:35 -40.33197 169.75964 39987 ft 482 kts 107°
2026-04-21 04:36 -40.35070 169.84340 39985 ft 482 kts 107°
2026-04-21 04:36 -40.36947 169.92767 39986 ft 482 kts 107°
2026-04-21 04:37 -40.38820 170.01207 39985 ft 482 kts 107°
2026-04-21 04:37 -40.40689 170.09663 39982 ft 483 kts 107°
2026-04-21 04:38 -40.42556 170.18139 39982 ft 483 kts 107°
2026-04-21 04:38 -40.44415 170.26612 39981 ft 483 kts 107°
2026-04-21 04:39 -40.46269 170.35101 39982 ft 483 kts 107°
2026-04-21 04:39 -40.48117 170.43590 39981 ft 484 kts 107°
2026-04-21 04:40 -40.49961 170.52094 39983 ft 484 kts 107°
2026-04-21 04:40 -40.52001 170.60523 39975 ft 485 kts 109°
2026-04-21 04:41 -40.54126 170.68952 40041 ft 487 kts 108°
2026-04-21 04:41 -40.56310 170.77438 39978 ft 490 kts 108°
2026-04-21 04:42 -40.58455 170.85903 39970 ft 487 kts 108°
2026-04-21 04:42 -40.60594 170.94324 39975 ft 489 kts 108°
2026-04-21 04:43 -40.62752 171.02872 39972 ft 489 kts 108°